Time,TemperatureF,DewpointF,PressureIn,WindDirection,WindDirectionDegrees,WindSpeedMPH,WindSpeedGustMPH,Humidity,HourlyPrecipIn,Conditions,Clouds,dailyrainin,SoftwareType,DateUTC
2013-08-18 00:00:00,56.8,54.2,30.23,SSW,203,0.0,0.0,91,0.00,,,0.00,Wunderground v.1.15,2013-08-18 04:00:00,
2013-08-18 00:02:00,56.8,54.2,30.23,SSW,203,0.0,0.0,91,0.00,,,0.00,Wunderground v.1.15,2013-08-18 04:02:00,
2013-08-18 00:04:00,56.8,54.2,30.23,SSW,203,0.0,0.0,91,0.00,,,0.00,Wunderground v.1.15,2013-08-18 04:04:00,
2013-08-18 00:06:00,56.8,54.2,30.23,SSW,203,0.0,0.0,91,0.00,,,0.00,Wunderground v.1.15,2013-08-18 04:06:00,
2013-08-18 00:08:00,56.8,54.2,30.23,SSW,203,0.0,0.0,91,0.00,,,0.00,Wunderground v.1.15,2013-08-18 04:08:00,
2013-08-18 00:14:00,56.7,54.1,30.23,SSW,203,0.0,0.0,91,0.00,,,0.00,Wunderground v.1.15,2013-08-18 04:14:00,
2013-08-18 00:20:00,56.7,54.4,30.23,SSW,203,0.0,0.0,92,0.00,,,0.00,Wunderground v.1.15,2013-08-18 04:20:00,
2013-08-18 00:26:00,56.7,54.4,30.23,SSW,203,0.0,0.0,92,0.00,,,0.00,Wunderground v.1.15,2013-08-18 04:26:00,
2013-08-18 00:32:00,56.8,54.5,30.23,SSW,202,0.0,0.0,92,0.00,,,0.00,Wunderground v.1.15,2013-08-18 04:32:00,
2013-08-18 00:38:00,56.8,54.5,30.23,SSW,203,0.0,0.0,92,0.00,,,0.00,Wunderground v.1.15,2013-08-18 04:38:00,
2013-08-18 00:44:00,56.9,54.6,30.23,SSW,203,0.0,0.0,92,0.00,,,0.00,Wunderground v.1.15,2013-08-18 04:44:00,
2013-08-18 00:50:00,56.8,54.5,30.23,SSW,203,0.0,0.0,92,0.00,,,0.00,Wunderground v.1.15,2013-08-18 04:50:00,
2013-08-18 00:56:00,56.7,54.4,30.23,SSW,203,0.0,0.0,92,0.00,,,0.00,Wunderground v.1.15,2013-08-18 04:56:00,
2013-08-18 01:02:00,56.7,54.4,30.23,SSW,203,0.0,0.0,92,0.00,,,0.00,Wunderground v.1.15,2013-08-18 05:02:00,
2013-08-18 01:08:00,56.7,54.4,30.23,SSW,203,0.0,0.0,92,0.00,,,0.00,Wunderground v.1.15,2013-08-18 05:08:00,
2013-08-18 01:14:00,56.7,54.4,30.23,SSW,203,0.0,0.0,92,0.00,,,0.00,Wunderground v.1.15,2013-08-18 05:14:00,
2013-08-18 01:20:00,56.7,54.4,30.22,SSW,203,0.0,0.0,92,0.00,,,0.00,Wunderground v.1.15,2013-08-18 05:20:00,
2013-08-18 01:26:00,56.6,54.3,30.22,SSW,203,0.0,0.0,92,0.00,,,0.00,Wunderground v.1.15,2013-08-18 05:26:00,
2013-08-18 01:32:00,56.5,54.2,30.22,SSW,203,0.0,0.0,92,0.00,,,0.00,Wunderground v.1.15,2013-08-18 05:32:00,
2013-08-18 01:38:00,56.5,54.2,30.21,SSW,203,0.0,0.0,92,0.00,,,0.00,Wunderground v.1.15,2013-08-18 05:38:00,
2013-08-18 01:44:00,56.5,54.2,30.21,SSW,203,0.0,0.0,92,0.00,,,0.00,Wunderground v.1.15,2013-08-18 05:44:00,
2013-08-18 01:50:00,56.5,54.2,30.21,SSW,203,0.0,0.0,92,0.00,,,0.00,Wunderground v.1.15,2013-08-18 05:50:00,
2013-08-18 01:56:00,56.6,54.3,30.21,SSW,203,0.0,0.0,92,0.00,,,0.00,Wunderground v.1.15,2013-08-18 05:56:00,
2013-08-18 02:02:00,56.6,54.3,30.22,SSW,203,0.0,0.0,92,0.00,,,0.00,Wunderground v.1.15,2013-08-18 06:02:00,
2013-08-18 02:08:00,56.6,54.3,30.21,SSW,203,0.0,0.0,92,0.00,,,0.00,Wunderground v.1.15,2013-08-18 06:08:00,
2013-08-18 02:14:00,56.5,54.2,30.21,SSW,203,0.0,0.0,92,0.00,,,0.00,Wunderground v.1.15,2013-08-18 06:14:00,
2013-08-18 02:20:00,56.4,54.1,30.21,SSW,203,0.0,0.0,92,0.00,,,0.00,Wunderground v.1.15,2013-08-18 06:20:00,
2013-08-18 02:26:00,56.5,54.5,30.21,SSW,203,0.0,0.0,93,0.00,,,0.00,Wunderground v.1.15,2013-08-18 06:26:00,
2013-08-18 02:32:00,56.5,54.5,30.21,SSW,203,0.0,0.0,93,0.00,,,0.00,Wunderground v.1.15,2013-08-18 06:32:00,
2013-08-18 02:38:00,56.4,54.4,30.21,SSW,203,0.0,0.0,93,0.00,,,0.00,Wunderground v.1.15,2013-08-18 06:38:00,
2013-08-18 02:44:00,56.4,54.4,30.21,SSW,203,0.0,0.0,93,0.00,,,0.00,Wunderground v.1.15,2013-08-18 06:44:00,
2013-08-18 02:50:00,56.2,53.9,30.20,SSW,203,0.0,0.0,92,0.00,,,0.00,Wunderground v.1.15,2013-08-18 06:50:00,
2013-08-18 02:56:00,56.3,54.3,30.21,SSW,203,0.0,0.0,93,0.00,,,0.00,Wunderground v.1.15,2013-08-18 06:56:00,
2013-08-18 03:02:00,56.3,54.3,30.20,SSW,203,0.0,0.0,93,0.00,,,0.00,Wunderground v.1.15,2013-08-18 07:02:00,
2013-08-18 03:08:00,56.5,54.5,30.21,SSW,203,0.0,0.0,93,0.00,,,0.00,Wunderground v.1.15,2013-08-18 07:08:00,
2013-08-18 03:14:00,56.6,54.6,30.21,SSW,203,0.0,0.0,93,0.00,,,0.00,Wunderground v.1.15,2013-08-18 07:14:00,
2013-08-18 03:20:00,56.6,54.6,30.21,SSW,203,0.0,0.0,93,0.00,,,0.00,Wunderground v.1.15,2013-08-18 07:20:00,
2013-08-18 03:26:00,56.6,54.6,30.20,SSW,203,0.0,0.0,93,0.00,,,0.00,Wunderground v.1.15,2013-08-18 07:26:00,
2013-08-18 03:32:00,56.6,54.6,30.20,SSW,203,0.0,0.0,93,0.00,,,0.00,Wunderground v.1.15,2013-08-18 07:32:00,
2013-08-18 03:38:00,56.5,54.5,30.20,SSW,203,0.0,0.0,93,0.00,,,0.00,Wunderground v.1.15,2013-08-18 07:38:00,
2013-08-18 03:44:00,56.5,54.8,30.20,WSW,238,0.0,2.0,94,0.00,,,0.00,Wunderground v.1.15,2013-08-18 07:44:00,
2013-08-18 03:50:00,56.7,55.0,30.20,WSW,238,0.0,0.0,94,0.00,,,0.00,Wunderground v.1.15,2013-08-18 07:50:00,
2013-08-18 03:56:00,56.7,55.0,30.20,WSW,238,0.0,0.0,94,0.00,,,0.00,Wunderground v.1.15,2013-08-18 07:56:00,
2013-08-18 04:02:00,56.7,55.0,30.21,WSW,238,0.0,0.0,94,0.00,,,0.00,Wunderground v.1.15,2013-08-18 08:02:00,
2013-08-18 04:08:00,56.7,55.0,30.20,WSW,238,0.0,0.0,94,0.00,,,0.00,Wunderground v.1.15,2013-08-18 08:08:00,
2013-08-18 04:14:00,56.7,55.0,30.20,WSW,238,0.0,0.0,94,0.00,,,0.00,Wunderground v.1.15,2013-08-18 08:14:00,
2013-08-18 04:20:00,56.6,54.9,30.20,WSW,238,0.0,0.0,94,0.00,,,0.00,Wunderground v.1.15,2013-08-18 08:20:00,
2013-08-18 04:26:00,56.5,54.8,30.20,WSW,238,0.0,0.0,94,0.00,,,0.00,Wunderground v.1.15,2013-08-18 08:26:00,
2013-08-18 04:32:00,56.5,54.8,30.20,WSW,238,0.0,0.0,94,0.00,,,0.00,Wunderground v.1.15,2013-08-18 08:32:00,
2013-08-18 04:38:00,56.5,54.8,30.20,WSW,238,0.0,0.0,94,0.00,,,0.00,Wunderground v.1.15,2013-08-18 08:38:00,
2013-08-18 04:44:00,56.5,54.8,30.21,WSW,238,0.0,0.0,94,0.00,,,0.00,Wunderground v.1.15,2013-08-18 08:44:00,
2013-08-18 04:50:00,56.6,54.9,30.21,WSW,238,0.0,0.0,94,0.00,,,0.00,Wunderground v.1.15,2013-08-18 08:50:00,
2013-08-18 04:56:00,56.6,54.9,30.21,WSW,238,0.0,0.0,94,0.00,,,0.00,Wunderground v.1.15,2013-08-18 08:56:00,
2013-08-18 05:02:00,56.6,54.9,30.21,WSW,238,0.0,0.0,94,0.00,,,0.00,Wunderground v.1.15,2013-08-18 09:02:00,
2013-08-18 05:08:00,56.5,54.8,30.21,WSW,238,0.0,0.0,94,0.00,,,0.00,Wunderground v.1.15,2013-08-18 09:08:00,
2013-08-18 05:14:00,56.7,55.0,30.21,WSW,238,0.0,0.0,94,0.00,,,0.00,Wunderground v.1.15,2013-08-18 09:14:00,
2013-08-18 05:20:00,56.8,55.1,30.21,WSW,238,0.0,0.0,94,0.00,,,0.00,Wunderground v.1.15,2013-08-18 09:20:00,
2013-08-18 05:26:00,56.8,55.1,30.21,WSW,238,0.0,0.0,94,0.00,,,0.00,Wunderground v.1.15,2013-08-18 09:26:00,
2013-08-18 05:32:00,56.7,55.0,30.21,WSW,238,0.0,0.0,94,0.00,,,0.00,Wunderground v.1.15,2013-08-18 09:32:00,
2013-08-18 05:38:00,56.8,55.1,30.21,WSW,238,0.0,0.0,94,0.00,,,0.00,Wunderground v.1.15,2013-08-18 09:38:00,
2013-08-18 05:44:00,56.8,55.1,30.21,WSW,238,0.0,0.0,94,0.00,,,0.00,Wunderground v.1.15,2013-08-18 09:44:00,
2013-08-18 05:50:00,56.9,55.2,30.21,WSW,238,0.0,0.0,94,0.00,,,0.00,Wunderground v.1.15,2013-08-18 09:50:00,
2013-08-18 05:56:00,56.9,55.2,30.21,WSW,238,0.0,0.0,94,0.00,,,0.00,Wunderground v.1.15,2013-08-18 09:56:00,
2013-08-18 06:02:00,56.9,55.2,30.21,WSW,238,0.0,0.0,94,0.00,,,0.00,Wunderground v.1.15,2013-08-18 10:02:00,
2013-08-18 06:08:00,57.0,55.3,30.21,WSW,238,0.0,0.0,94,0.00,,,0.00,Wunderground v.1.15,2013-08-18 10:08:00,
2013-08-18 06:14:00,57.0,55.3,30.21,WSW,238,0.0,0.0,94,0.00,,,0.00,Wunderground v.1.15,2013-08-18 10:14:00,
2013-08-18 06:20:00,56.9,55.2,30.21,WSW,238,0.0,0.0,94,0.00,,,0.00,Wunderground v.1.15,2013-08-18 10:20:00,
2013-08-18 06:26:00,56.9,55.2,30.21,WSW,238,0.0,0.0,94,0.00,,,0.00,Wunderground v.1.15,2013-08-18 10:26:00,
2013-08-18 06:32:00,56.8,55.1,30.22,WSW,238,0.0,0.0,94,0.00,,,0.00,Wunderground v.1.15,2013-08-18 10:32:00,
2013-08-18 06:38:00,56.8,55.1,30.22,WSW,238,0.0,0.0,94,0.00,,,0.00,Wunderground v.1.15,2013-08-18 10:38:00,
2013-08-18 06:44:00,56.8,55.1,30.22,WSW,238,0.0,0.0,94,0.00,,,0.00,Wunderground v.1.15,2013-08-18 10:44:00,
2013-08-18 06:50:00,56.8,55.1,30.22,WSW,238,0.0,0.0,94,0.00,,,0.00,Wunderground v.1.15,2013-08-18 10:50:00,
2013-08-18 06:56:00,56.7,55.0,30.22,WSW,238,0.0,0.0,94,0.00,,,0.00,Wunderground v.1.15,2013-08-18 10:56:00,
2013-08-18 07:02:00,56.8,55.1,30.22,WSW,238,0.0,0.0,94,0.00,,,0.01,Wunderground v.1.15,2013-08-18 11:02:00,
2013-08-18 07:08:00,56.9,55.2,30.22,WSW,238,0.0,0.0,94,0.00,,,0.01,Wunderground v.1.15,2013-08-18 11:08:00,
2013-08-18 07:14:00,57.0,55.3,30.23,WSW,238,0.0,0.0,94,0.00,,,0.01,Wunderground v.1.15,2013-08-18 11:14:00,
2013-08-18 07:20:00,57.1,55.4,30.23,WSW,238,0.0,0.0,94,0.00,,,0.01,Wunderground v.1.15,2013-08-18 11:20:00,
2013-08-18 07:26:00,57.2,55.5,30.23,WSW,238,0.0,0.0,94,0.00,,,0.01,Wunderground v.1.15,2013-08-18 11:26:00,
2013-08-18 07:32:00,57.4,56.0,30.23,WSW,238,0.0,0.0,95,0.00,,,0.01,Wunderground v.1.15,2013-08-18 11:32:00,
2013-08-18 07:38:00,57.6,56.2,30.23,WSW,238,0.0,0.0,95,0.00,,,0.01,Wunderground v.1.15,2013-08-18 11:38:00,
2013-08-18 07:44:00,57.7,56.3,30.23,WSW,238,0.0,0.0,95,0.00,,,0.01,Wunderground v.1.15,2013-08-18 11:44:00,
2013-08-18 07:50:00,57.8,56.4,30.23,WSW,238,0.0,0.0,95,0.00,,,0.01,Wunderground v.1.15,2013-08-18 11:50:00,
2013-08-18 07:56:00,57.8,56.4,30.23,WSW,238,0.0,0.0,95,0.00,,,0.01,Wunderground v.1.15,2013-08-18 11:56:00,
2013-08-18 08:02:00,57.8,56.4,30.23,WSW,238,0.0,0.0,95,0.00,,,0.01,Wunderground v.1.15,2013-08-18 12:02:00,
2013-08-18 08:08:00,57.9,56.5,30.23,WSW,238,0.0,0.0,95,0.00,,,0.01,Wunderground v.1.15,2013-08-18 12:08:00,
2013-08-18 08:14:00,58.0,56.6,30.24,WSW,238,0.0,0.0,95,0.00,,,0.01,Wunderground v.1.15,2013-08-18 12:14:00,
2013-08-18 08:20:00,58.1,56.7,30.24,WSW,238,0.0,0.0,95,0.00,,,0.01,Wunderground v.1.15,2013-08-18 12:20:00,
2013-08-18 08:26:00,58.1,56.7,30.24,WSW,238,0.0,0.0,95,0.00,,,0.01,Wunderground v.1.15,2013-08-18 12:26:00,
2013-08-18 08:32:00,58.3,56.9,30.24,WSW,238,0.0,0.0,95,0.00,,,0.01,Wunderground v.1.15,2013-08-18 12:32:00,
2013-08-18 08:38:00,58.4,57.0,30.24,WSW,238,0.0,0.0,95,0.00,,,0.01,Wunderground v.1.15,2013-08-18 12:38:00,
2013-08-18 08:44:00,58.6,57.2,30.25,WSW,238,0.0,1.0,95,0.00,,,0.01,Wunderground v.1.15,2013-08-18 12:44:00,
2013-08-18 08:50:00,58.9,57.5,30.25,WSW,238,0.0,0.0,95,0.00,,,0.01,Wunderground v.1.15,2013-08-18 12:50:00,
2013-08-18 08:56:00,59.1,57.7,30.25,WSW,238,1.0,2.0,95,0.00,,,0.01,Wunderground v.1.15,2013-08-18 12:56:00,
2013-08-18 09:02:00,59.3,57.9,30.25,SW,232,1.0,1.0,95,0.00,,,0.01,Wunderground v.1.15,2013-08-18 13:02:00,
2013-08-18 09:08:00,59.3,57.9,30.25,SSW,207,2.0,3.0,95,0.00,,,0.01,Wunderground v.1.15,2013-08-18 13:08:00,
2013-08-18 09:14:00,59.2,57.8,30.25,SSW,207,3.0,4.0,95,0.00,,,0.01,Wunderground v.1.15,2013-08-18 13:14:00,
2013-08-18 09:20:00,58.9,57.2,30.26,South,187,4.0,7.0,94,0.00,,,0.01,Wunderground v.1.15,2013-08-18 13:20:00,
2013-08-18 09:26:00,58.4,56.7,30.26,SW,220,4.0,7.0,94,0.00,,,0.01,Wunderground v.1.15,2013-08-18 13:26:00,
2013-08-18 09:32:00,58.4,56.7,30.26,SSW,208,5.0,7.0,94,0.00,,,0.01,Wunderground v.1.15,2013-08-18 13:32:00,
2013-08-18 09:38:00,58.4,56.4,30.26,SSW,197,5.0,7.0,93,0.00,,,0.01,Wunderground v.1.15,2013-08-18 13:38:00,
2013-08-18 09:44:00,58.4,56.7,30.26,SSW,200,3.0,5.0,94,0.00,,,0.01,Wunderground v.1.15,2013-08-18 13:44:00,
2013-08-18 09:50:00,58.3,56.3,30.26,SSW,211,4.0,4.0,93,0.00,,,0.01,Wunderground v.1.15,2013-08-18 13:50:00,
2013-08-18 09:56:00,58.2,56.2,30.26,SW,219,4.0,7.0,93,0.00,,,0.01,Wunderground v.1.15,2013-08-18 13:56:00,
2013-08-18 10:02:00,57.8,55.5,30.26,SSW,207,4.0,4.0,92,0.00,,,0.01,Wunderground v.1.15,2013-08-18 14:02:00,
2013-08-18 10:08:00,57.8,55.5,30.26,SSW,198,4.0,5.0,92,0.00,,,0.01,Wunderground v.1.15,2013-08-18 14:08:00,
2013-08-18 10:14:00,58.0,55.7,30.26,SW,215,4.0,7.0,92,0.00,,,0.01,Wunderground v.1.15,2013-08-18 14:14:00,
2013-08-18 10:20:00,57.8,55.2,30.26,SSW,201,5.0,5.0,91,0.00,,,0.01,Wunderground v.1.15,2013-08-18 14:20:00,
2013-08-18 10:26:00,58.0,55.4,30.26,SW,218,5.0,6.0,91,0.00,,,0.01,Wunderground v.1.15,2013-08-18 14:26:00,
2013-08-18 10:32:00,58.3,55.1,30.26,SW,217,4.0,6.0,89,0.00,,,0.01,Wunderground v.1.15,2013-08-18 14:32:00,
2013-08-18 10:38:00,58.2,55.0,30.26,SW,217,3.0,6.0,89,0.00,,,0.01,Wunderground v.1.15,2013-08-18 14:38:00,
2013-08-18 10:44:00,58.1,55.2,30.26,SW,215,1.0,3.0,90,0.00,,,0.01,Wunderground v.1.15,2013-08-18 14:44:00,
2013-08-18 10:50:00,58.2,55.3,30.26,SW,215,1.0,1.0,90,0.00,,,0.01,Wunderground v.1.15,2013-08-18 14:50:00,
2013-08-18 10:56:00,58.5,55.9,30.26,SW,215,0.0,2.0,91,0.00,,,0.01,Wunderground v.1.15,2013-08-18 14:56:00,
2013-08-18 11:02:00,59.1,55.9,30.26,SW,234,1.0,3.0,89,0.00,,,0.01,Wunderground v.1.15,2013-08-18 15:02:00,
2013-08-18 11:08:00,59.5,55.9,30.26,SW,233,2.0,4.0,88,0.00,,,0.01,Wunderground v.1.15,2013-08-18 15:08:00,
2013-08-18 11:14:00,59.7,55.8,30.26,SW,229,3.0,4.0,87,0.00,,,0.01,Wunderground v.1.15,2013-08-18 15:14:00,
2013-08-18 11:20:00,60.2,56.3,30.26,SW,230,2.0,2.0,87,0.00,,,0.01,Wunderground v.1.15,2013-08-18 15:20:00,
2013-08-18 11:26:00,61.1,56.6,30.26,SW,234,3.0,4.0,85,0.00,,,0.01,Wunderground v.1.15,2013-08-18 15:26:00,
2013-08-18 11:32:00,60.8,56.6,30.25,SW,214,3.0,5.0,86,0.00,,,0.01,Wunderground v.1.15,2013-08-18 15:32:00,
2013-08-18 11:38:00,61.1,56.9,30.25,SW,217,1.0,5.0,86,0.00,,,0.01,Wunderground v.1.15,2013-08-18 15:38:00,
2013-08-18 11:44:00,61.3,56.8,30.25,SSW,200,1.0,1.0,85,0.00,,,0.01,Wunderground v.1.15,2013-08-18 15:44:00,
2013-08-18 11:50:00,62.3,57.4,30.25,SSW,200,1.0,1.0,84,0.00,,,0.01,Wunderground v.1.15,2013-08-18 15:50:00,
2013-08-18 11:56:00,61.9,57.3,30.25,SSW,200,0.0,1.0,85,0.00,,,0.01,Wunderground v.1.15,2013-08-18 15:56:00,
2013-08-18 12:02:00,62.0,57.1,30.25,SSW,204,0.0,1.0,84,0.00,,,0.01,Wunderground v.1.15,2013-08-18 16:02:00,
2013-08-18 12:08:00,62.0,56.8,30.24,SSW,202,1.0,2.0,83,0.00,,,0.01,Wunderground v.1.15,2013-08-18 16:08:00,
2013-08-18 12:14:00,61.6,56.4,30.24,SW,220,0.0,1.0,83,0.00,,,0.01,Wunderground v.1.15,2013-08-18 16:14:00,
2013-08-18 12:20:00,61.3,56.8,30.24,SW,220,0.0,0.0,85,0.00,,,0.01,Wunderground v.1.15,2013-08-18 16:20:00,
2013-08-18 12:26:00,60.9,56.0,30.25,SW,221,0.0,0.0,84,0.00,,,0.01,Wunderground v.1.15,2013-08-18 16:26:00,
2013-08-18 12:32:00,60.8,56.6,30.25,SW,220,0.0,0.0,86,0.00,,,0.01,Wunderground v.1.15,2013-08-18 16:32:00,
2013-08-18 12:38:00,61.3,57.1,30.25,South,183,2.0,4.0,86,0.00,,,0.01,Wunderground v.1.15,2013-08-18 16:38:00,
2013-08-18 12:44:00,61.0,56.5,30.25,SW,223,5.0,6.0,85,0.00,,,0.01,Wunderground v.1.15,2013-08-18 16:44:00,
2013-08-18 12:50:00,60.1,56.2,30.25,SW,228,4.0,4.0,87,0.00,,,0.01,Wunderground v.1.15,2013-08-18 16:50:00,
2013-08-18 12:56:00,59.9,55.7,30.24,WSW,239,3.0,5.0,86,0.00,,,0.01,Wunderground v.1.15,2013-08-18 16:56:00,
2013-08-18 13:02:00,59.4,55.8,30.25,SW,231,2.0,3.0,88,0.00,,,0.01,Wunderground v.1.15,2013-08-18 17:02:00,
2013-08-18 13:08:00,59.8,56.2,30.24,SW,231,1.0,3.0,88,0.00,,,0.01,Wunderground v.1.15,2013-08-18 17:08:00,
2013-08-18 13:14:00,60.9,56.7,30.24,SW,231,0.0,2.0,86,0.00,,,0.01,Wunderground v.1.15,2013-08-18 17:14:00,
2013-08-18 13:20:00,61.1,56.9,30.24,SW,231,0.0,0.0,86,0.00,,,0.01,Wunderground v.1.15,2013-08-18 17:20:00,
2013-08-18 13:26:00,60.9,57.0,30.24,SW,231,0.0,0.0,87,0.00,,,0.01,Wunderground v.1.15,2013-08-18 17:26:00,
2013-08-18 13:32:00,61.3,57.1,30.23,SW,231,0.0,0.0,86,0.00,,,0.01,Wunderground v.1.15,2013-08-18 17:32:00,
2013-08-18 13:38:00,61.2,57.0,30.23,SW,231,0.0,0.0,86,0.00,,,0.01,Wunderground v.1.15,2013-08-18 17:38:00,
2013-08-18 13:44:00,62.1,57.5,30.23,SW,230,0.0,1.0,85,0.00,,,0.01,Wunderground v.1.15,2013-08-18 17:44:00,
2013-08-18 13:50:00,62.6,58.0,30.23,SW,232,1.0,1.0,85,0.00,,,0.01,Wunderground v.1.15,2013-08-18 17:50:00,
2013-08-18 13:56:00,62.5,57.9,30.23,SW,231,1.0,1.0,85,0.00,,,0.01,Wunderground v.1.15,2013-08-18 17:56:00,
2013-08-18 14:02:00,63.2,58.3,30.23,SW,232,0.0,1.0,84,0.00,,,0.01,Wunderground v.1.15,2013-08-18 18:02:00,
2013-08-18 14:08:00,62.6,58.0,30.23,SW,232,0.0,1.0,85,0.00,,,0.01,Wunderground v.1.15,2013-08-18 18:08:00,
2013-08-18 14:14:00,62.7,58.1,30.23,SW,232,0.0,0.0,85,0.00,,,0.01,Wunderground v.1.15,2013-08-18 18:14:00,
2013-08-18 14:20:00,64.0,58.4,30.22,SW,232,0.0,0.0,82,0.00,,,0.01,Wunderground v.1.15,2013-08-18 18:20:00,
2013-08-18 14:26:00,64.1,58.5,30.22,SW,232,0.0,0.0,82,0.00,,,0.01,Wunderground v.1.15,2013-08-18 18:26:00,
2013-08-18 14:32:00,64.2,58.6,30.22,SW,232,0.0,0.0,82,0.00,,,0.01,Wunderground v.1.15,2013-08-18 18:32:00,
2013-08-18 14:38:00,63.9,58.6,30.22,WSW,247,0.0,0.0,83,0.00,,,0.01,Wunderground v.1.15,2013-08-18 18:38:00,
2013-08-18 14:44:00,64.3,58.7,30.22,WSW,246,0.0,2.0,82,0.00,,,0.01,Wunderground v.1.15,2013-08-18 18:44:00,
2013-08-18 14:50:00,64.4,58.8,30.21,WSW,246,1.0,1.0,82,0.00,,,0.01,Wunderground v.1.15,2013-08-18 18:50:00,
2013-08-18 14:56:00,64.0,58.4,30.21,WSW,246,0.0,1.0,82,0.00,,,0.01,Wunderground v.1.15,2013-08-18 18:56:00,
2013-08-18 15:02:00,64.3,59.0,30.21,WSW,247,0.0,0.0,83,0.00,,,0.01,Wunderground v.1.15,2013-08-18 19:02:00,
2013-08-18 15:08:00,64.8,59.5,30.21,WSW,244,0.0,3.0,83,0.00,,,0.01,Wunderground v.1.15,2013-08-18 19:08:00,
2013-08-18 15:14:00,65.4,59.4,30.21,WSW,244,0.0,0.0,81,0.00,,,0.01,Wunderground v.1.15,2013-08-18 19:14:00,
2013-08-18 15:20:00,65.7,59.7,30.20,WSW,244,0.0,1.0,81,0.00,,,0.01,Wunderground v.1.15,2013-08-18 19:20:00,
2013-08-18 15:26:00,66.5,59.4,30.20,WSW,243,1.0,2.0,78,0.00,,,0.01,Wunderground v.1.15,2013-08-18 19:26:00,
2013-08-18 15:32:00,66.2,60.5,30.20,SSW,196,1.0,3.0,82,0.00,,,0.01,Wunderground v.1.15,2013-08-18 19:32:00,
2013-08-18 15:38:00,66.9,59.8,30.20,WSW,249,1.0,3.0,78,0.00,,,0.01,Wunderground v.1.15,2013-08-18 19:38:00,
2013-08-18 15:44:00,66.2,60.5,30.20,WSW,241,1.0,4.0,82,0.00,,,0.01,Wunderground v.1.15,2013-08-18 19:44:00,
2013-08-18 15:50:00,66.8,60.1,30.20,SW,235,3.0,3.0,79,0.00,,,0.01,Wunderground v.1.15,2013-08-18 19:50:00,
2013-08-18 15:56:00,66.4,60.0,30.20,WSW,240,3.0,5.0,80,0.00,,,0.01,Wunderground v.1.15,2013-08-18 19:56:00,
2013-08-18 16:02:00,66.3,59.9,30.20,WSW,246,3.0,3.0,80,0.00,,,0.01,Wunderground v.1.15,2013-08-18 20:02:00,
2013-08-18 16:08:00,67.4,61.4,30.20,SSW,192,2.0,6.0,81,0.00,,,0.01,Wunderground v.1.15,2013-08-18 20:08:00,
2013-08-18 16:14:00,67.9,61.5,30.20,South,186,2.0,3.0,80,0.00,,,0.01,Wunderground v.1.15,2013-08-18 20:14:00,
2013-08-18 16:20:00,67.7,60.6,30.19,SSE,167,1.0,1.0,78,0.00,,,0.01,Wunderground v.1.15,2013-08-18 20:20:00,
2013-08-18 16:26:00,67.7,61.0,30.19,SW,218,0.0,3.0,79,0.00,,,0.01,Wunderground v.1.15,2013-08-18 20:26:00,
2013-08-18 16:32:00,67.8,60.3,30.19,SW,227,1.0,3.0,77,0.00,,,0.01,Wunderground v.1.15,2013-08-18 20:32:00,
2013-08-18 16:38:00,67.9,60.4,30.19,SSW,211,1.0,5.0,77,0.00,,,0.01,Wunderground v.1.15,2013-08-18 20:38:00,
2013-08-18 16:44:00,68.9,62.1,30.18,SSW,198,2.0,3.0,79,0.00,,,0.01,Wunderground v.1.15,2013-08-18 20:44:00,
2013-08-18 16:50:00,69.4,61.1,30.18,SSW,198,1.0,2.0,75,0.00,,,0.01,Wunderground v.1.15,2013-08-18 20:50:00,
2013-08-18 16:56:00,69.1,60.5,30.18,SSW,198,0.0,2.0,74,0.00,,,0.01,Wunderground v.1.15,2013-08-18 20:56:00,
2013-08-18 17:02:00,68.2,60.3,30.18,SSW,198,0.0,0.0,76,0.00,,,0.01,Wunderground v.1.15,2013-08-18 21:02:00,
2013-08-18 17:08:00,68.8,60.9,30.18,SSW,193,0.0,0.0,76,0.00,,,0.01,Wunderground v.1.15,2013-08-18 21:08:00,
2013-08-18 17:14:00,69.1,60.8,30.18,SSW,193,0.0,1.0,75,0.00,,,0.01,Wunderground v.1.15,2013-08-18 21:14:00,
2013-08-18 17:20:00,69.4,61.9,30.18,South,191,0.0,0.0,77,0.00,,,0.01,Wunderground v.1.15,2013-08-18 21:20:00,
2013-08-18 17:26:00,69.4,61.1,30.18,SSW,192,0.0,0.0,75,0.00,,,0.01,Wunderground v.1.15,2013-08-18 21:26:00,
2013-08-18 17:32:00,69.0,60.7,30.17,SSW,205,0.0,3.0,75,0.00,,,0.01,Wunderground v.1.15,2013-08-18 21:32:00,
2013-08-18 17:38:00,68.5,60.6,30.17,SSW,205,0.0,3.0,76,0.00,,,0.01,Wunderground v.1.15,2013-08-18 21:38:00,
2013-08-18 17:44:00,68.1,61.0,30.17,SSW,205,0.0,1.0,78,0.00,,,0.01,Wunderground v.1.15,2013-08-18 21:44:00,
2013-08-18 17:50:00,68.3,60.8,30.17,SSW,205,0.0,0.0,77,0.00,,,0.01,Wunderground v.1.15,2013-08-18 21:50:00,
2013-08-18 17:56:00,68.1,61.3,30.17,SSW,205,0.0,0.0,79,0.00,,,0.01,Wunderground v.1.15,2013-08-18 21:56:00,
2013-08-18 18:02:00,68.5,61.0,30.17,SSW,205,0.0,0.0,77,0.00,,,0.01,Wunderground v.1.15,2013-08-18 22:02:00,
2013-08-18 18:08:00,68.4,60.5,30.17,SSW,205,0.0,0.0,76,0.00,,,0.01,Wunderground v.1.15,2013-08-18 22:08:00,
2013-08-18 18:14:00,68.5,61.7,30.17,SSW,205,0.0,0.0,79,0.00,,,0.01,Wunderground v.1.15,2013-08-18 22:14:00,
2013-08-18 18:20:00,68.8,61.3,30.16,SW,215,1.0,1.0,77,0.00,,,0.01,Wunderground v.1.15,2013-08-18 22:20:00,
2013-08-18 18:26:00,68.7,61.2,30.16,SW,215,1.0,1.0,77,0.00,,,0.01,Wunderground v.1.15,2013-08-18 22:26:00,
2013-08-18 18:32:00,68.7,61.2,30.16,SW,215,0.0,0.0,77,0.00,,,0.01,Wunderground v.1.15,2013-08-18 22:32:00,
2013-08-18 18:38:00,68.5,61.0,30.16,SW,218,1.0,2.0,77,0.00,,,0.01,Wunderground v.1.15,2013-08-18 22:38:00,
2013-08-18 18:44:00,68.3,61.2,30.16,SW,218,0.0,1.0,78,0.00,,,0.01,Wunderground v.1.15,2013-08-18 22:44:00,
2013-08-18 18:50:00,67.9,61.5,30.16,SW,218,0.0,0.0,80,0.00,,,0.01,Wunderground v.1.15,2013-08-18 22:50:00,
2013-08-18 18:56:00,67.9,61.1,30.16,SW,218,0.0,0.0,79,0.00,,,0.01,Wunderground v.1.15,2013-08-18 22:56:00,
2013-08-18 19:02:00,68.0,61.2,30.16,SW,218,0.0,1.0,79,0.00,,,0.01,Wunderground v.1.15,2013-08-18 23:02:00,
2013-08-18 19:08:00,68.0,61.6,30.16,SW,218,0.0,1.0,80,0.00,,,0.01,Wunderground v.1.15,2013-08-18 23:08:00,
2013-08-18 19:14:00,67.8,61.8,30.16,SW,218,0.0,0.0,81,0.00,,,0.01,Wunderground v.1.15,2013-08-18 23:14:00,
2013-08-18 19:20:00,67.4,61.7,30.16,SW,218,0.0,0.0,82,0.00,,,0.01,Wunderground v.1.15,2013-08-18 23:20:00,
2013-08-18 19:26:00,67.0,61.7,30.16,SW,218,0.0,0.0,83,0.00,,,0.01,Wunderground v.1.15,2013-08-18 23:26:00,
2013-08-18 19:32:00,66.2,61.2,30.16,SW,218,0.0,0.0,84,0.00,,,0.01,Wunderground v.1.15,2013-08-18 23:32:00,
2013-08-18 19:38:00,65.1,60.5,30.16,SW,218,0.0,0.0,85,0.00,,,0.01,Wunderground v.1.15,2013-08-18 23:38:00,
2013-08-18 19:44:00,64.4,60.1,30.16,SW,218,0.0,0.0,86,0.00,,,0.01,Wunderground v.1.15,2013-08-18 23:44:00,
2013-08-18 19:50:00,63.6,59.3,30.16,SW,218,0.0,0.0,86,0.00,,,0.01,Wunderground v.1.15,2013-08-18 23:50:00,
2013-08-18 19:56:00,63.0,59.1,30.16,SW,218,0.0,0.0,87,0.00,,,0.01,Wunderground v.1.15,2013-08-18 23:56:00,
2013-08-18 20:02:00,62.6,59.0,30.16,SW,218,0.0,0.0,88,0.00,,,0.01,Wunderground v.1.15,2013-08-19 00:02:00,
2013-08-18 20:08:00,62.1,58.5,30.16,SW,218,0.0,0.0,88,0.00,,,0.01,Wunderground v.1.15,2013-08-19 00:08:00,
2013-08-18 20:14:00,61.7,58.1,30.16,SW,218,0.0,0.0,88,0.00,,,0.01,Wunderground v.1.15,2013-08-19 00:14:00,
2013-08-18 20:20:00,61.4,57.8,30.16,SW,218,0.0,0.0,88,0.00,,,0.01,Wunderground v.1.15,2013-08-19 00:20:00,
2013-08-18 20:26:00,61.1,57.5,30.16,SW,218,0.0,0.0,88,0.00,,,0.01,Wunderground v.1.15,2013-08-19 00:26:00,
2013-08-18 20:32:00,60.8,57.5,30.16,SW,218,0.0,0.0,89,0.00,,,0.01,Wunderground v.1.15,2013-08-19 00:32:00,
2013-08-18 20:38:00,60.5,57.2,30.16,SW,218,0.0,0.0,89,0.00,,,0.01,Wunderground v.1.15,2013-08-19 00:38:00,
2013-08-18 20:44:00,60.3,57.0,30.16,SW,218,0.0,0.0,89,0.00,,,0.01,Wunderground v.1.15,2013-08-19 00:44:00,
2013-08-18 20:50:00,60.0,56.7,30.16,SW,218,0.0,0.0,89,0.00,,,0.01,Wunderground v.1.15,2013-08-19 00:50:00,
2013-08-18 20:56:00,59.8,56.9,30.17,SW,218,0.0,0.0,90,0.00,,,0.01,Wunderground v.1.15,2013-08-19 00:56:00,
2013-08-18 21:02:00,59.5,56.6,30.17,SW,218,0.0,0.0,90,0.00,,,0.01,Wunderground v.1.15,2013-08-19 01:02:00,
2013-08-18 21:08:00,59.3,56.4,30.17,SW,218,0.0,0.0,90,0.00,,,0.01,Wunderground v.1.15,2013-08-19 01:08:00,
2013-08-18 21:14:00,59.1,56.5,30.17,SW,218,0.0,0.0,91,0.00,,,0.01,Wunderground v.1.15,2013-08-19 01:14:00,
2013-08-18 21:20:00,58.9,56.3,30.17,SW,218,0.0,0.0,91,0.00,,,0.01,Wunderground v.1.15,2013-08-19 01:20:00,
2013-08-18 21:26:00,58.7,56.1,30.17,SW,218,0.0,0.0,91,0.00,,,0.01,Wunderground v.1.15,2013-08-19 01:26:00,
2013-08-18 21:32:00,58.7,56.1,30.17,SW,218,0.0,0.0,91,0.00,,,0.01,Wunderground v.1.15,2013-08-19 01:32:00,
2013-08-18 21:38:00,58.8,56.5,30.17,SW,218,0.0,0.0,92,0.00,,,0.01,Wunderground v.1.15,2013-08-19 01:38:00,
2013-08-18 21:44:00,58.7,56.4,30.17,SW,218,0.0,0.0,92,0.00,,,0.01,Wunderground v.1.15,2013-08-19 01:44:00,
2013-08-18 21:50:00,58.6,56.3,30.17,SW,218,0.0,0.0,92,0.00,,,0.01,Wunderground v.1.15,2013-08-19 01:50:00,
2013-08-18 21:56:00,58.6,56.3,30.18,SW,218,0.0,0.0,92,0.00,,,0.01,Wunderground v.1.15,2013-08-19 01:56:00,
2013-08-18 22:02:00,58.6,56.3,30.18,SW,218,0.0,0.0,92,0.00,,,0.01,Wunderground v.1.15,2013-08-19 02:02:00,
2013-08-18 22:08:00,58.4,56.1,30.18,SW,218,0.0,0.0,92,0.00,,,0.01,Wunderground v.1.15,2013-08-19 02:08:00,
2013-08-18 22:14:00,58.0,55.7,30.17,SW,218,0.0,0.0,92,0.00,,,0.01,Wunderground v.1.15,2013-08-19 02:14:00,
2013-08-18 22:20:00,57.8,55.5,30.17,SW,218,0.0,0.0,92,0.00,,,0.01,Wunderground v.1.15,2013-08-19 02:20:00,
2013-08-18 22:26:00,58.1,55.8,30.17,SW,218,0.0,2.0,92,0.00,,,0.01,Wunderground v.1.15,2013-08-19 02:26:00,
2013-08-18 22:32:00,58.1,55.8,30.17,SW,218,0.0,0.0,92,0.00,,,0.01,Wunderground v.1.15,2013-08-19 02:32:00,
2013-08-18 22:38:00,57.6,55.3,30.17,SW,218,0.0,0.0,92,0.00,,,0.01,Wunderground v.1.15,2013-08-19 02:38:00,
2013-08-18 22:44:00,57.4,55.1,30.17,SW,218,0.0,0.0,92,0.00,,,0.01,Wunderground v.1.15,2013-08-19 02:44:00,
2013-08-18 22:50:00,57.3,55.0,30.17,SW,218,0.0,0.0,92,0.00,,,0.01,Wunderground v.1.15,2013-08-19 02:50:00,
2013-08-18 22:56:00,57.2,54.9,30.17,SW,218,0.0,0.0,92,0.00,,,0.01,Wunderground v.1.15,2013-08-19 02:56:00,
2013-08-18 23:02:00,57.2,55.2,30.17,SW,218,0.0,0.0,93,0.00,,,0.01,Wunderground v.1.15,2013-08-19 03:02:00,
2013-08-18 23:08:00,57.2,55.2,30.17,SW,218,0.0,0.0,93,0.00,,,0.01,Wunderground v.1.15,2013-08-19 03:08:00,
2013-08-18 23:14:00,57.5,55.5,30.17,SW,219,1.0,3.0,93,0.00,,,0.01,Wunderground v.1.15,2013-08-19 03:14:00,
2013-08-18 23:20:00,57.5,55.5,30.17,SW,219,1.0,1.0,93,0.00,,,0.01,Wunderground v.1.15,2013-08-19 03:20:00,
2013-08-18 23:26:00,57.6,55.6,30.17,SW,224,1.0,3.0,93,0.00,,,0.01,Wunderground v.1.15,2013-08-19 03:26:00,
2013-08-18 23:32:00,57.7,55.7,30.17,SW,227,2.0,4.0,93,0.00,,,0.01,Wunderground v.1.15,2013-08-19 03:32:00,
2013-08-18 23:38:00,57.8,55.8,30.17,SW,227,2.0,4.0,93,0.00,,,0.01,Wunderground v.1.15,2013-08-19 03:38:00,
2013-08-18 23:44:00,58.0,56.3,30.17,SW,228,2.0,3.0,94,0.00,,,0.01,Wunderground v.1.15,2013-08-19 03:44:00,
2013-08-18 23:50:00,57.9,56.2,30.17,SW,228,2.0,2.0,94,0.00,,,0.01,Wunderground v.1.15,2013-08-19 03:50:00,
2013-08-18 23:56:00,57.7,55.7,30.17,SW,228,0.0,2.0,93,0.00,,,0.01,Wunderground v.1.15,2013-08-19 03:56:00,